�������l�o���
Date,Time,MP-1(��Sv/h),MP-2(��Sv/h),MP-3(��Sv/h),MP-4(��Sv/h),MP-5(��Sv/h),MP-6(��Sv/h),MP-7(��Sv/h),MP-8(��Sv/h),����,����(m/s),���J
2022/05/12,00:00,0.577,0.859,0.547,1.043,0.740,0.347,0.601,0.565,��,7.9,��
2022/05/12,00:10,0.577,0.860,0.546,1.040,0.740,0.349,0.601,0.565,��,8.1,��
2022/05/12,00:20,0.576,0.859,0.548,1.041,0.740,0.347,0.601,0.567,��,7.5,��
2022/05/12,00:30,0.578,0.858,0.547,1.042,0.740,0.348,0.601,0.565,��쐼,6.8,��
2022/05/12,00:40,0.578,0.856,0.548,1.045,0.740,0.346,0.602,0.565,��,8.2,��
2022/05/12,00:50,0.577,0.857,0.548,1.043,0.742,0.348,0.602,0.565,��,7.9,��
2022/05/12,01:00,0.577,0.856,0.547,1.042,0.738,0.347,0.601,0.566,��,7.1,��
2022/05/12,01:10,0.577,0.858,0.547,1.043,0.739,0.348,0.601,0.565,��,5.6,��
2022/05/12,01:20,0.578,0.859,0.548,1.042,0.739,0.346,0.601,0.565,��,5.6,��
2022/05/12,01:30,0.577,0.858,0.547,1.042,0.737,0.347,0.604,0.567,��,4.8,��
2022/05/12,01:40,0.577,0.858,0.549,1.044,0.739,0.347,0.602,0.565,��,4.2,��
2022/05/12,01:50,0.577,0.857,0.547,1.043,0.741,0.346,0.602,0.566,��,3.1,��
2022/05/12,02:00,0.576,0.860,0.548,1.043,0.740,0.347,0.602,0.567,��,1.5,��
2022/05/12,02:10,0.576,0.858,0.547,1.044,0.740,0.346,0.602,0.566,��,1.9,��
2022/05/12,02:20,0.576,0.860,0.547,1.042,0.741,0.348,0.601,0.564,��쐼,0.9,��
2022/05/12,02:30,0.576,0.858,0.547,1.043,0.741,0.348,0.601,0.567,��쐼,0.9,��
2022/05/12,02:40,0.577,0.858,0.546,1.042,0.738,0.348,0.601,0.565,��쐼,1.1,��
2022/05/12,02:50,0.577,0.858,0.547,1.041,0.739,0.347,0.599,0.566,��쐼,1.7,��
2022/05/12,03:00,0.576,0.858,0.547,1.044,0.738,0.347,0.602,0.565,��쐼,1.9,��
2022/05/12,03:10,0.577,0.859,0.548,1.045,0.740,0.347,0.600,0.566,�쓌,0.9,��
2022/05/12,03:20,0.576,0.858,0.548,1.044,0.738,0.346,0.602,0.566,��,1.7,��
2022/05/12,03:30,0.576,0.859,0.548,1.043,0.741,0.348,0.601,0.566,��,1.9,��
2022/05/12,03:40,0.579,0.859,0.549,1.043,0.742,0.346,0.601,0.565,��,1.7,��
2022/05/12,03:50,0.577,0.858,0.548,1.044,0.739,0.347,0.601,0.567,��쓌,0.6,��
2022/05/12,04:00,0.575,0.858,0.549,1.043,0.741,0.347,0.600,0.566,��,0.9,��
2022/05/12,04:10,0.578,0.861,0.547,1.044,0.740,0.347,0.599,0.566,-,CALM,��
2022/05/12,04:20,0.578,0.860,0.549,1.042,0.741,0.347,0.601,0.566,-,CALM,��
2022/05/12,04:30,0.578,0.860,0.547,1.044,0.740,0.348,0.601,0.567,-,CALM,��
2022/05/12,04:40,0.576,0.858,0.549,1.045,0.740,0.348,0.601,0.567,-,CALM,��
2022/05/12,04:50,0.577,0.857,0.549,1.046,0.741,0.348,0.602,0.567,-,CALM,��
2022/05/12,05:00,0.576,0.859,0.549,1.045,0.741,0.348,0.601,0.565,�k,1.2,��
2022/05/12,05:10,0.577,0.857,0.548,1.044,0.739,0.347,0.600,0.567,�k,1.7,��
2022/05/12,05:20,0.576,0.859,0.549,1.046,0.741,0.348,0.601,0.564,�k,2.6,��
2022/05/12,05:30,0.576,0.858,0.548,1.045,0.740,0.348,0.600,0.565,�k,2.5,��
2022/05/12,05:40,0.574,0.858,0.549,1.045,0.739,0.347,0.601,0.567,�k,2.9,��
2022/05/12,05:50,0.576,0.857,0.547,1.046,0.738,0.347,0.601,0.564,�k�k��,2.5,��
2022/05/12,06:00,0.575,0.859,0.547,1.044,0.740,0.348,0.600,0.566,�k�k��,3.4,��
2022/05/12,06:10,0.578,0.858,0.549,1.044,0.742,0.348,0.602,0.566,�k,2.8,��
2022/05/12,06:20,0.575,0.860,0.548,1.046,0.739,0.347,0.602,0.565,�k,1.9,��
2022/05/12,06:30,0.575,0.859,0.546,1.043,0.740,0.348,0.601,0.565,�k,1.7,��
2022/05/12,06:40,0.578,0.858,0.549,1.044,0.740,0.347,0.601,0.567,�k�k��,1.2,��
2022/05/12,06:50,0.575,0.859,0.548,1.048,0.743,0.348,0.601,0.566,�k�k��,1.1,��
2022/05/12,07:00,0.578,0.861,0.548,1.044,0.741,0.347,0.601,0.566,�k�k��,0.9,��
2022/05/12,07:10,0.577,0.860,0.549,1.045,0.742,0.348,0.601,0.566,���k��,0.6,��
2022/05/12,07:20,0.578,0.856,0.548,1.045,0.738,0.346,0.602,0.567,�k��,0.8,��
2022/05/12,07:30,0.577,0.857,0.547,1.043,0.741,0.347,0.602,0.566,-,CALM,��
2022/05/12,07:40,0.576,0.857,0.548,1.045,0.740,0.345,0.601,0.566,��쐼,0.6,��
2022/05/12,07:50,0.576,0.857,0.549,1.044,0.740,0.346,0.599,0.565,��쓌,1.1,��
2022/05/12,08:00,0.576,0.857,0.548,1.046,0.739,0.346,0.600,0.563,��쓌,1.7,��
2022/05/12,08:10,0.574,0.855,0.550,1.045,0.739,0.347,0.599,0.563,�쓌,1.7,��
2022/05/12,08:20,0.576,0.856,0.548,1.047,0.739,0.345,0.600,0.563,���쓌,1.5,��
2022/05/12,08:30,0.575,0.853,0.549,1.043,0.740,0.345,0.599,0.563,��,1.5,��
2022/05/12,08:40,0.576,0.854,0.548,1.044,0.739,0.346,0.599,0.562,���쓌,2.0,��
2022/05/12,08:50,0.576,0.856,0.546,1.046,0.737,0.345,0.599,0.562,��,2.0,��
2022/05/12,09:00,0.577,0.855,0.548,1.045,0.740,0.346,0.600,0.564,���쓌,1.7,��
2022/05/12,09:10,0.576,0.854,0.548,1.044,0.741,0.345,0.599,0.562,��,1.1,��
2022/05/12,09:20,0.575,0.854,0.545,1.043,0.737,0.345,0.599,0.565,���쓌,1.9,��
2022/05/12,09:30,0.575,0.856,0.545,1.044,0.738,0.346,0.599,0.563,�쓌,1.5,��
2022/05/12,09:40,0.575,0.853,0.547,1.045,0.738,0.345,0.600,0.564,��쓌,2.3,��
2022/05/12,09:50,0.576,0.854,0.545,1.046,0.736,0.345,0.598,0.563,��쓌,2.3,��
2022/05/12,10:00,0.575,0.858,0.547,1.045,0.738,0.344,0.600,0.562,�쓌,3.5,��
2022/05/12,10:10,0.574,0.857,0.547,1.044,0.739,0.346,0.600,0.562,�쓌,3.8,��
2022/05/12,10:20,0.576,0.856,0.545,1.045,0.738,0.345,0.601,0.565,��쓌,3.7,��
2022/05/12,10:30,0.577,0.854,0.548,1.046,0.738,0.346,0.600,0.565,��쓌,5.3,��
2022/05/12,10:40,0.576,0.856,0.546,1.047,0.740,0.345,0.601,0.564,��쓌,5.6,��
2022/05/12,10:50,0.578,0.858,0.547,1.046,0.738,0.345,0.602,0.563,��쓌,7.9,��
2022/05/12,11:00,0.576,0.858,-,1.046,0.740,0.347,0.602,0.565,��쓌,8.7,��
2022/05/12,11:10,0.578,0.858,-,1.042,0.740,0.348,0.602,0.566,��쓌,12.1,��
2022/05/12,11:20,0.577,0.856,-,1.044,0.741,0.349,0.602,0.563,��,11.8,��
2022/05/12,11:30,0.580,0.857,-,1.042,0.742,0.349,0.601,0.566,��,11.1,��
2022/05/12,11:40,0.578,0.858,-,1.043,0.743,0.347,0.603,0.566,��쓌,13.5,��
2022/05/12,11:50,0.580,0.860,-,1.042,0.741,0.347,0.604,0.566,��,11.8,��
2022/05/12,12:00,0.578,0.858,-,1.043,0.742,0.348,0.602,0.566,��쓌,12.5,��
2022/05/12,12:10,0.578,0.859,-,1.044,0.743,0.349,0.601,0.566,��쓌,14.1,��
2022/05/12,12:20,0.579,0.861,-,1.047,0.741,0.347,0.601,0.566,��쓌,14.7,��
2022/05/12,12:30,0.580,0.860,-,1.046,0.741,0.349,0.601,0.563,��쓌,16.1,��
2022/05/12,12:40,0.578,0.861,-,1.043,0.742,0.347,0.604,0.565,��쓌,13.8,��
2022/05/12,12:50,0.580,0.861,-,1.045,0.743,0.347,0.600,0.565,��쓌,15.8,��
2022/05/12,13:00,0.580,0.861,-,1.046,0.743,0.347,0.603,0.565,��쓌,15.5,��
2022/05/12,13:10,0.578,0.859,-,1.046,0.744,0.348,0.602,0.566,��쓌,15.7,��
2022/05/12,13:20,0.577,0.859,-,1.045,0.743,0.346,0.604,0.566,��쓌,14.2,��
2022/05/12,13:30,0.579,0.859,-,1.046,0.743,0.347,0.602,0.564,��쓌,15.2,��
2022/05/12,13:40,0.580,0.859,-,1.044,0.744,0.347,0.601,0.564,��쓌,15.2,��
2022/05/12,13:50,0.578,0.858,-,1.047,0.744,0.348,0.600,0.567,��쓌,16.0,��
2022/05/12,14:00,0.579,0.859,-,1.044,0.745,0.348,0.601,0.565,��쓌,13.1,��
2022/05/12,14:10,0.579,0.858,-,1.045,0.746,0.348,0.601,0.565,��,12.7,��
2022/05/12,14:20,0.578,0.859,0.549,1.045,0.745,0.347,0.601,0.565,��쓌,11.8,��
2022/05/12,14:30,0.579,0.860,0.550,1.045,0.745,0.348,0.601,0.568,��쓌,13.9,��
2022/05/12,14:40,0.580,0.861,0.551,1.045,0.744,0.346,0.601,0.565,��,10.5,��
2022/05/12,14:50,0.578,0.859,0.551,1.046,0.744,0.348,0.601,0.566,��쓌,12.0,��
2022/05/12,15:00,0.578,0.859,0.549,1.047,0.745,0.347,0.601,0.564,��,12.1,��
2022/05/12,15:10,0.578,0.860,0.551,1.045,0.744,0.347,0.601,0.565,��,12.2,��
2022/05/12,15:20,0.577,0.861,0.549,1.045,0.745,0.348,0.600,0.563,��,10.5,��
2022/05/12,15:30,0.578,0.860,0.550,1.044,0.743,0.348,0.601,0.566,��쓌,12.2,��
2022/05/12,15:40,0.577,0.861,0.550,1.046,0.743,0.348,0.600,0.564,��,12.7,��
2022/05/12,15:50,0.578,0.861,0.551,1.045,0.746,0.347,0.600,0.566,��,10.2,��
2022/05/12,16:00,0.578,0.860,0.549,1.046,0.743,0.348,0.600,0.565,��,9.6,��
2022/05/12,16:10,0.578,0.862,0.548,1.048,0.746,0.346,0.599,0.565,��,9.5,��
2022/05/12,16:20,0.578,0.863,0.550,1.047,0.745,0.348,0.600,0.566,��,8.5,��
2022/05/12,16:30,0.577,0.860,0.551,1.048,0.744,0.347,0.600,0.567,��,10.2,��
2022/05/12,16:40,0.578,0.858,0.548,1.049,0.746,0.348,0.602,0.564,��,11.3,��
2022/05/12,16:50,0.578,0.862,0.548,1.051,0.744,0.347,0.600,0.567,��,11.3,��
2022/05/12,17:00,0.577,0.860,0.549,1.048,0.744,0.345,0.602,0.565,��,11.7,��
2022/05/12,17:10,0.579,0.860,0.549,1.049,0.745,0.347,0.600,0.566,��,9.3,��
2022/05/12,17:20,0.577,0.862,0.548,1.050,0.746,0.348,0.600,0.565,��,8.4,��
2022/05/12,17:30,0.579,0.862,0.550,1.052,0.744,0.346,0.599,0.565,��,6.9,��
2022/05/12,17:40,0.576,0.862,0.550,1.048,0.744,0.346,0.600,0.565,��,9.4,��
2022/05/12,17:50,0.578,0.863,0.550,1.051,0.744,0.347,0.601,0.565,��,9.8,��
2022/05/12,18:00,0.578,0.861,0.546,1.048,0.743,0.347,0.600,0.564,��,9.1,��
2022/05/12,18:10,0.577,0.860,0.548,1.050,0.746,0.347,0.600,0.567,��,7.2,��
2022/05/12,18:20,0.577,0.861,0.550,1.048,0.743,0.346,0.599,0.564,��,8.1,��
2022/05/12,18:30,0.577,0.863,0.546,1.048,0.743,0.347,0.600,0.566,��,9.4,��
2022/05/12,18:40,0.579,0.863,0.548,1.052,0.744,0.347,0.598,0.566,��,9.3,��
2022/05/12,18:50,0.577,0.862,0.550,1.051,0.744,0.349,0.601,0.566,��,8.1,��
2022/05/12,19:00,0.577,0.862,0.547,1.051,0.744,0.347,0.601,0.568,��,8.4,��
2022/05/12,19:10,0.576,0.862,0.548,1.052,0.744,0.348,0.601,0.567,��,7.8,��
2022/05/12,19:20,0.576,0.861,0.551,1.051,0.744,0.347,0.602,0.567,��,7.3,��
2022/05/12,19:30,0.577,0.863,0.553,1.050,0.746,0.348,0.601,0.566,��,7.2,��
2022/05/12,19:40,0.578,0.862,0.552,1.051,0.745,0.347,0.602,0.566,��,6.0,��
2022/05/12,19:50,0.580,0.862,0.551,1.051,0.743,0.349,0.602,0.567,��,6.8,��
2022/05/12,20:00,0.576,0.865,0.551,1.051,0.745,0.349,0.602,0.566,��,6.7,��
2022/05/12,20:10,0.580,0.865,0.554,1.050,0.747,0.348,0.602,0.568,��,7.1,��
2022/05/12,20:20,0.578,0.864,0.552,1.050,0.745,0.348,0.601,0.568,��,7.8,��
2022/05/12,20:30,0.578,0.864,0.552,1.051,0.744,0.347,0.601,0.567,��,8.4,��
2022/05/12,20:40,0.579,0.866,0.552,1.048,0.743,0.348,0.601,0.566,��,8.4,��
2022/05/12,20:50,0.578,0.864,0.551,1.050,0.744,0.348,0.604,0.567,��,9.2,��
2022/05/12,21:00,0.577,0.866,0.551,1.050,0.744,0.349,0.601,0.567,��,10.9,��
2022/05/12,21:10,0.577,0.865,0.552,1.051,0.744,0.347,0.600,0.567,��,11.0,��
2022/05/12,21:20,0.574,0.863,0.550,1.053,0.742,0.348,0.602,0.568,��,9.7,��
2022/05/12,21:30,0.577,0.862,0.551,1.049,0.742,0.349,0.601,0.566,��,9.7,��
2022/05/12,21:40,0.576,0.862,0.552,1.050,0.743,0.347,0.602,0.568,��,8.7,��
2022/05/12,21:50,0.577,0.863,0.551,1.050,0.744,0.346,0.602,0.567,��,8.3,��
2022/05/12,22:00,0.577,0.863,0.551,1.052,0.744,0.348,0.603,0.567,��,8.2,��
2022/05/12,22:10,0.578,0.862,0.550,1.052,0.743,0.347,0.602,0.569,��,9.1,��
2022/05/12,22:20,0.576,0.861,0.552,1.052,0.745,0.347,0.602,0.567,��,9.6,��
2022/05/12,22:30,0.576,0.860,0.551,1.051,0.745,0.349,0.603,0.568,��,9.2,��
2022/05/12,22:40,0.579,0.863,0.552,1.050,0.744,0.349,0.602,0.568,��,9.6,��
2022/05/12,22:50,0.578,0.864,0.552,1.052,0.744,0.347,0.604,0.568,��,8.2,��
2022/05/12,23:00,0.577,0.862,0.551,1.050,0.744,0.348,0.603,0.566,��,8.3,��
2022/05/12,23:10,0.578,0.864,0.552,1.049,0.743,0.348,0.603,0.568,��,7.3,��
2022/05/12,23:20,0.578,0.865,0.551,1.049,0.745,0.348,0.605,0.568,��,7.4,��
2022/05/12,23:30,0.578,0.865,0.551,1.050,0.745,0.346,0.603,0.568,��,7.2,��
2022/05/12,23:40,0.580,0.867,0.551,1.052,0.745,0.349,0.603,0.567,��,6.9,��
2022/05/12,23:50,0.579,0.865,0.551,1.052,0.745,0.349,0.603,0.567,��,6.5,��
